Managua, Nicaragua

4:44 AM CST on October 01, 2016 (GMT -0600)
Augusto Cesar Sandino

Weather History for MNMG - November, 2012

Change the Weather History Date:

Friday, November 23, 2012

  Actual Average Record
Temperature  
Mean Temperature 79 °F -  
Max Temperature 87 °F 86 °F 91 °F (2000)
Min Temperature 69 °F 70 °F 59 °F (2006)
Cooling Degree Days 14    
Growing Degree Days 29 (Base 50)    
Moisture  
Dew Point 64 °F    
Average Humidity 63    
Maximum Humidity 83    
Minimum Humidity 43    
Precipitation  
Precipitation 0.00 in - - ()
Sea Level Pressure  
Sea Level Pressure 29.90 in    
Wind  
Wind Speed 5 mph ()    
Max Wind Speed 12 mph    
Max Gust Speed -    
Visibility 6.2 miles    
Events      
Averages and records for this station are not official NWS values.
T = Trace of Precipitation, MM = Missing Value Source: Averaged Metar Reports

Daily Weather History Graph

Daily Weather History Graph

Search for Another Location

Airport or City:

Trip Planner

Search our weather history database for the weather conditions in past years. The results will help you decide how hot, cold, wet, or windy it might be!

Date:

Astronomy

Nov. 23, 2012 Rise Set
Actual Time 5:45 AM CST 5:16 PM CST
Civil Twilight 5:23 AM CST 5:38 PM CST
Nautical Twilight 4:57 AM CST 6:05 PM CST
Astronomical Twilight 4:31 AM CST 6:30 PM CST
Moon 1:55 PM CST (11/23) 1:44 AM CST (11/23)
Length of Visible Light 12h 15m
Length of Day
11h 30m
Waxing Gibbous, 80% of the Moon is Illuminated
Nov 23
Waxing Gibbous
Nov 28
Full
Dec 6
Last Quarter
Dec 13
New
Dec 19
First Quarter

Hourly Weather History & Observations

Time (CST) Temp. Heat Index Dew Point Humidity Pressure Visibility Wind Dir Wind Speed Gust Speed Precip Events Conditions
12:00 AM 73.4 °F - 66.2 °F 78% 29.95 in 6.2 mi Calm Calm - N/A   Scattered Clouds
3:00 AM 71.6 °F - 66.2 °F 83% 29.89 in 6.2 mi Calm Calm - N/A   Partly Cloudy
4:00 AM 71.6 °F - 66.2 °F 83% 29.89 in 6.2 mi ESE 4.6 mph - N/A   Partly Cloudy
5:00 AM 71.6 °F - 66.2 °F 83% 29.92 in 6.2 mi SE 6.9 mph - N/A   Partly Cloudy
6:00 AM 73.4 °F - 66.2 °F 78% 29.92 in 6.2 mi ESE 6.9 mph - N/A   Mostly Cloudy
7:00 AM 77.0 °F - 64.4 °F 65% 29.95 in 6.2 mi ESE 9.2 mph - N/A   Scattered Clouds
8:00 AM 78.8 °F - 66.2 °F 65% 29.95 in 6.2 mi East 4.6 mph - N/A   Partly Cloudy
9:00 AM 80.6 °F 82.7 °F 66.2 °F 61% 29.95 in 6.2 mi ENE 6.9 mph - N/A   Scattered Clouds
10:00 AM 82.4 °F 84.6 °F 66.2 °F 58% 29.92 in 6.2 mi NE 11.5 mph - N/A   Scattered Clouds
11:00 AM 84.2 °F 86.6 °F 66.2 °F 55% 29.92 in 6.2 mi East 11.5 mph - N/A   Scattered Clouds
12:00 PM 86.0 °F 87.3 °F 64.4 °F 48% 29.89 in 6.2 mi ENE 9.2 mph - N/A   Scattered Clouds
1:00 PM 87.8 °F 89.4 °F 64.4 °F 46% 29.86 in 6.2 mi NE 9.2 mph - N/A   Partly Cloudy
2:00 PM 87.8 °F 88.5 °F 62.6 °F 43% 29.83 in 6.2 mi ENE 6.9 mph - N/A   Partly Cloudy
3:00 PM 87.8 °F 89.4 °F 64.4 °F 46% 29.83 in 6.2 mi East 9.2 mph - N/A   Partly Cloudy
4:00 PM 86.0 °F 87.3 °F 64.4 °F 48% 29.83 in 6.2 mi ENE 9.2 mph - N/A   Partly Cloudy
5:00 PM 84.2 °F 85.0 °F 62.6 °F 48% 29.83 in 6.2 mi East 9.2 mph - N/A   Partly Cloudy
6:00 PM 80.6 °F 81.5 °F 60.8 °F 51% 29.86 in 6.2 mi East 6.9 mph - N/A   Partly Cloudy
7:00 PM 77.0 °F - 60.8 °F 57% 29.92 in 6.2 mi ESE 9.2 mph - N/A   Partly Cloudy
8:00 PM 75.2 °F - 62.6 °F 65% 29.92 in 6.2 mi SE 4.6 mph - N/A   Partly Cloudy
9:00 PM 73.4 °F - 62.6 °F 69% 29.95 in 6.2 mi Calm Calm - N/A   Partly Cloudy
10:00 PM 71.6 °F - 62.6 °F 73% 29.95 in 6.2 mi SSE 4.6 mph - N/A   Partly Cloudy
11:00 PM 69.8 °F - 62.6 °F 78% 29.95 in 6.2 mi Calm Calm - N/A   Partly Cloudy